Data for 05/20/2013

Time Sea-Level Adjusted Pressure Absolute Pressure Temperature Relative Humidity Dew Point   
(mb) (inHg) (mb) (inHg) (C) (F) (%) (C) (F)
00:05 1022 30.18 851 25.13 7.4 45.2 93 6.4 43.5
00:10 1022 30.18 851 25.13 7.4 45.2 93 6.4 43.4
00:15 1022 30.18 851 25.13 7.4 45.3 93 6.4 43.5
00:20 1022 30.18 851 25.13 7.4 45.3 93 6.3 43.4
00:25 1022 30.18 851 25.13 7.4 45.3 93 6.4 43.4
00:30 1022 30.18 851 25.13 7.4 45.3 93 6.4 43.4
00:35 1022 30.18 851 25.13 7.4 45.3 93 6.3 43.4
00:40 1022 30.18 851 25.13 7.4 45.3 93 6.3 43.3
00:45 1022 30.18 851 25.13 7.4 45.3 93 6.3 43.3
00:50 1022 30.18 851 25.13 7.4 45.4 93 6.3 43.4
00:55 1022 30.18 851 25.13 7.4 45.4 92 6.2 43.2
01:00 1022 30.18 851 25.13 7.4 45.4 92 6.3 43.3
01:05 1022 30.18 851 25.13 7.4 45.4 92 6.3 43.3
01:10 1022 30.18 851 25.13 7.4 45.4 92 6.2 43.2
01:15 1022 30.18 851 25.13 7.4 45.3 92 6.2 43.2
01:20 1022 30.18 851 25.13 7.4 45.3 92 6.3 43.3
01:25 1022 30.18 851 25.13 7.4 45.4 92 6.3 43.3
01:30 1022 30.18 851 25.13 7.4 45.3 93 6.3 43.3
01:35 1022 30.18 851 25.13 7.4 45.3 93 6.3 43.3
01:40 1022 30.18 851 25.13 7.3 45.2 93 6.3 43.3
01:45 1022 30.18 851 25.13 7.3 45.2 93 6.3 43.3
01:50 1022 30.18 851 25.13 7.3 45.1 93 6.3 43.3
01:55 1022 30.18 851 25.13 7.3 45.1 93 6.3 43.3
02:00 1022 30.18 851 25.13 7.3 45.1 93 6.3 43.3
02:05 1022 30.18 851 25.13 7.3 45.1 94 6.3 43.3
02:10 1022 30.18 851 25.13 7.3 45.1 94 6.3 43.4
02:15 1022 30.18 851 25.13 7.3 45.1 94 6.3 43.4
02:20 1022 30.18 851 25.13 7.3 45.1 94 6.3 43.4
02:25 1022 30.18 851 25.13 7.3 45.1 94 6.3 43.4
02:30 1022 30.18 851 25.13 7.3 45.2 94 6.4 43.4
02:35 1022 30.18 851 25.13 7.3 45.2 94 6.3 43.4
02:40 1022 30.18 851 25.13 7.3 45.2 93 6.3 43.4
02:45 1022 30.18 851 25.13 7.3 45.2 94 6.3 43.4
02:50 1022 30.18 851 25.13 7.3 45.2 94 6.3 43.4
02:55 1022 30.18 851 25.13 7.3 45.1 94 6.3 43.4
03:00 1022 30.18 851 25.13 7.3 45.2 93 6.4 43.4
03:05 1022 30.18 851 25.13 7.3 45.2 93 6.3 43.4
03:10 1022 30.18 851 25.13 7.3 45.2 93 6.3 43.4
03:15 1022 30.18 851 25.13 7.3 45.2 93 6.3 43.4
03:20 1022 30.18 851 25.13 7.4 45.2 93 6.4 43.5
03:25 1022 30.18 851 25.13 7.3 45.2 93 6.3 43.4
03:30 1022 30.18 851 25.13 7.3 45.1 93 6.3 43.3
03:35 1022 30.18 851 25.13 7.3 45.1 93 6.3 43.3
03:40 1022 30.18 851 25.13 7.3 45.1 93 6.2 43.2
03:45 1022 30.18 851 25.13 7.3 45.1 93 6.2 43.2
03:50 1022 30.18 851 25.13 7.2 45 93 6.2 43.2
03:55 1022 30.18 851 25.13 7.2 45 93 6.2 43.2
04:00 1022 30.18 851 25.13 7.2 44.9 93 6.1 43.1
04:05 1022 30.18 851 25.13 7.2 44.9 94 6.2 43.2
04:10 1022 30.18 851 25.13 7.2 44.9 94 6.2 43.2
04:15 1022 30.18 851 25.13 7.2 44.9 94 6.2 43.2
04:20 1022 30.18 851 25.13 7.2 44.9 94 6.2 43.2
04:25 1022 30.18 851 25.13 7.2 44.9 94 6.2 43.2
04:30 1022 30.18 851 25.13 7.2 44.9 94 6.3 43.3
04:35 1022 30.18 852 25.16 7.2 44.9 94 6.3 43.3
04:40 1022 30.18 852 25.16 7.2 44.9 94 6.3 43.3
04:45 1022 30.18 852 25.16 7.2 44.9 94 6.3 43.3
04:50 1023 30.21 852 25.16 7.2 44.9 94 6.3 43.3
04:55 1023 30.21 852 25.16 7.2 45 94 6.3 43.3
05:00 1023 30.21 852 25.16 7.2 45 94 6.3 43.4
05:05 1023 30.21 852 25.16 7.2 45 94 6.3 43.4
05:10 1023 30.21 852 25.16 7.2 45 94 6.3 43.3
05:15 1023 30.21 852 25.16 7.3 45.1 94 6.4 43.5
05:20 1023 30.21 852 25.16 7.3 45.1 94 6.4 43.5
05:25 1023 30.21 852 25.16 7.4 45.2 94 6.4 43.6
05:45 1023 30.21 852 25.16 7.5 45.4 94 6.5 43.7
05:50 1023 30.21 852 25.16 7.5 45.5 93 6.5 43.7
05:55 1023 30.21 852 25.16 7.5 45.5 93 6.5 43.7
06:00 1023 30.21 852 25.16 7.5 45.5 93 6.5 43.7
06:05 1023 30.21 852 25.16 7.6 45.7 93 6.5 43.7
06:10 1023 30.21 852 25.16 7.6 45.7 93 6.5 43.8
06:15 1023 30.21 852 25.16 7.7 45.8 93 6.6 43.8
06:20 1023 30.21 852 25.16 7.7 45.8 93 6.6 43.8
06:25 1023 30.21 852 25.16 7.7 45.9 93 6.6 43.9
06:30 1023 30.21 852 25.16 7.7 45.9 93 6.6 43.8
06:35 1023 30.21 852 25.16 7.7 45.9 93 6.6 43.9
06:40 1023 30.21 852 25.16 7.7 45.9 93 6.6 43.8
06:45 1023 30.21 852 25.16 7.7 45.9 93 6.6 43.9
06:50 1023 30.21 852 25.16 7.8 46 93 6.6 43.9
06:55 1023 30.21 852 25.16 7.8 46 92 6.6 43.9
07:00 1023 30.21 852 25.16 7.8 46 92 6.6 44
07:05 1023 30.21 852 25.16 7.9 46.1 93 6.7 44.1
07:10 1023 30.21 852 25.16 7.9 46.2 93 6.8 44.2
07:15 1023 30.21 852 25.16 7.9 46.2 92 6.7 44.1
07:20 1023 30.21 852 25.16 7.9 46.1 93 6.7 44.1
07:25 1023 30.21 852 25.16 7.9 46.2 92 6.7 44.1
07:30 1023 30.21 852 25.16 7.9 46.1 93 6.7 44.1
07:35 1023 30.21 853 25.19 7.9 46.2 92 6.7 44.1
07:40 1023 30.21 853 25.19 7.9 46.2 93 6.8 44.2
07:45 1023 30.21 853 25.19 7.9 46.1 92 6.7 44.1
07:50 1023 30.21 853 25.19 7.9 46.1 93 6.7 44.1
07:55 1023 30.21 853 25.19 7.9 46.2 92 6.7 44.1
08:00 1023 30.21 853 25.19 7.9 46.2 92 6.7 44.1
08:05 1023 30.21 853 25.19 8 46.4 92 6.8 44.3
08:10 1024 30.24 853 25.19 8.1 46.5 92 6.8 44.3
08:15 1024 30.24 853 25.19 8 46.5 92 6.8 44.2
08:20 1024 30.24 853 25.19 8 46.5 92 6.8 44.2
08:25 1024 30.24 853 25.19 8 46.5 92 6.8 44.2
08:30 1024 30.24 853 25.19 8.1 46.5 92 6.8 44.3
08:35 1024 30.24 853 25.19 8.1 46.5 92 6.8 44.2
08:40 1024 30.24 853 25.19 8.1 46.6 92 6.8 44.3
08:45 1024 30.24 853 25.19 8.2 46.7 92 6.9 44.4
08:50 1024 30.24 853 25.19 8.2 46.8 91 6.9 44.4
08:55 1024 30.24 853 25.19 8.4 47.1 91 7 44.6
09:00 1024 30.24 853 25.19 8.5 47.2 91 7.1 44.9
09:05 1024 30.24 853 25.19 8.5 47.2 90 6.9 44.5
09:10 1024 30.24 853 25.19 8.5 47.2 90 6.9 44.4
09:15 1024 30.24 853 25.19 8.5 47.4 90 6.9 44.5
09:20 1024 30.24 853 25.19 8.6 47.5 90 7 44.6
09:25 1024 30.24 853 25.19 8.7 47.6 88 6.9 44.3
09:30 1024 30.24 853 25.19 8.7 47.7 89 7 44.6
09:35 1024 30.24 853 25.19 8.7 47.7 88 6.9 44.5
09:40 1024 30.24 853 25.19 8.8 47.8 88 6.9 44.5
09:45 1024 30.24 853 25.19 8.8 47.9 88 7 44.6
09:50 1024 30.24 853 25.19 8.8 47.9 88 7 44.6
09:55 1024 30.24 853 25.19 8.9 48 88 7 44.6
10:00 1024 30.24 853 25.19 9 48.1 86 6.7 44.1
10:05 1024 30.24 853 25.19 9 48.2 86 6.8 44.2
10:10 1024 30.24 853 25.19 9 48.2 86 6.8 44.3
10:15 1024 30.24 853 25.19 9 48.1 86 6.8 44.2
10:20 1024 30.24 853 25.19 8.9 48.1 87 6.8 44.3
10:25 1024 30.24 853 25.19 9 48.1 87 7 44.6
10:30 1024 30.24 853 25.19 9 48.1 87 7 44.5
10:35 1024 30.24 853 25.19 8.9 48.1 88 7 44.7
10:40 1024 30.24 853 25.19 8.9 48.1 88 7 44.6
10:45 1024 30.24 853 25.19 9 48.2 87 6.9 44.5
10:50 1024 30.24 853 25.19 9.1 48.4 88 7.2 44.9
10:55 1024 30.24 853 25.19 9.2 48.6 87 7.1 44.8
11:00 1024 30.24 853 25.19 9.3 48.7 87 7.2 44.9
11:05 1024 30.24 853 25.19 9.3 48.8 85 7 44.6
11:10 1024 30.24 853 25.19 9.4 48.8 85 7.1 44.7
11:15 1024 30.24 853 25.19 9.5 49 87 7.3 45.2
11:20 1024 30.24 853 25.19 9.6 49.2 85 7.1 44.8
11:25 1024 30.24 853 25.19 9.6 49.4 86 7.4 45.3
11:30 1024 30.24 853 25.19 9.8 49.7 84 7.2 45
11:35 1024 30.24 853 25.19 9.9 49.9 83 7.1 44.9
11:40 1024 30.24 853 25.19 10.1 50.1 82 7.1 44.8
11:45 1024 30.24 853 25.19 10.1 50.2 81 7 44.6
11:50 1024 30.24 853 25.19 10 50.1 81 7 44.6
11:55 1024 30.24 853 25.19 10 49.9 82 7.1 44.8
12:00 1024 30.24 853 25.19 10 50 83 7.2 45
12:05 1024 30.24 853 25.19 9.9 49.9 81 6.9 44.4
12:10 1024 30.24 853 25.19 9.7 49.5 81 6.7 44
12:15 1024 30.24 853 25.19 9.8 49.7 81 6.8 44.3
12:20 1024 30.24 853 25.19 10.4 50.7 80 7.1 44.8
12:25 1024 30.24 853 25.19 10.6 51 76 6.5 43.8
12:30 1024 30.24 853 25.19 11 51.7 77 7 44.7
12:35 1024 30.24 853 25.19 11.4 52.4 76 7.2 45
12:40 1024 30.24 853 25.19 11.7 53.1 73 7 44.6
12:45 1024 30.24 853 25.19 11.5 52.7 72 6.6 43.8
12:50 1024 30.24 853 25.19 11.4 52.5 73 6.7 44
12:55 1024 30.24 853 25.19 11.2 52.2 71 6.1 43.1
13:00 1024 30.24 853 25.19 11 51.8 72 6.3 43.3
13:05 1024 30.24 853 25.19 11 51.8 74 6.5 43.6
13:10 1024 30.24 853 25.19 11 51.8 75 6.8 44.3
13:15 1024 30.24 853 25.19 10.8 51.4 75 6.7 44
13:20 1024 30.24 853 25.19 10.5 50.9 77 6.7 44.1
13:25 1024 30.24 853 25.19 10.4 50.7 81 7.4 45.3
13:30 1024 30.24 853 25.19 10.3 50.5 84 7.7 45.9
13:35 1024 30.24 853 25.19 10.2 50.3 81 7.1 44.8
13:40 1024 30.24 853 25.19 9.7 49.5 87 7.8 46
13:45 1024 30.24 853 25.19 9.4 48.8 87 7.3 45.1
13:50 1024 30.24 853 25.19 8.8 47.9 89 7.1 44.8
13:55 1024 30.24 853 25.19 8.6 47.6 90 7.2 44.9
14:00 1024 30.24 853 25.19 8.6 47.5 89 7 44.6
14:05 1024 30.24 853 25.19 8.5 47.3 87 6.5 43.7
14:10 1024 30.24 853 25.19 8.7 47.7 86 6.5 43.8
14:15 1024 30.24 853 25.19 9.1 48.3 82 6.2 43.2
14:20 1024 30.24 853 25.19 9.2 48.6 82 6.3 43.4
14:25 1023 30.21 853 25.19 9.1 48.4 83 6.3 43.4
14:30 1023 30.21 853 25.19 9.1 48.5 84 6.7 44
14:35 1024 30.24 853 25.19 9.5 49.1 85 7.1 44.8
14:40 1023 30.21 853 25.19 9.7 49.5 81 6.7 44
14:45 1023 30.21 853 25.19 9.6 49.2 83 6.9 44.4
14:50 1023 30.21 853 25.19 9.5 49.2 82 6.7 44
14:55 1023 30.21 853 25.19 9.8 49.6 82 7 44.5
15:00 1023 30.21 853 25.19 10.1 50.1 77 6.3 43.3
15:05 1023 30.21 852 25.16 10 49.9 75 5.8 42.4
15:10 1023 30.21 852 25.16 9.9 49.8 77 6.1 43.1
15:15 1023 30.21 852 25.16 9.7 49.5 74 5.4 41.8
15:20 1023 30.21 852 25.16 9.9 49.8 75 5.7 42.3
15:25 1023 30.21 852 25.16 10 50.1 75 5.9 42.6
15:30 1023 30.21 852 25.16 10.1 50.1 74 5.7 42.2
15:35 1023 30.21 852 25.16 10.1 50.2 73 5.5 42
15:40 1023 30.21 852 25.16 10.1 50.3 73 5.6 42.1
15:45 1023 30.21 852 25.16 10.4 50.8 71 5.4 41.8
15:50 1023 30.21 852 25.16 10.8 51.5 66 4.9 40.8
15:55 1023 30.21 852 25.16 11.3 52.3 61 4.2 39.5
16:00 1023 30.21 852 25.16 11.2 52.2 63 4.4 40
16:05 1023 30.21 852 25.16 11.5 52.6 62 4.5 40.2
16:10 1023 30.21 852 25.16 12.3 54.1 58 4.4 39.9
16:15 1023 30.21 852 25.16 12.7 54.8 57 4.4 39.9
16:20 1023 30.21 852 25.16 12.4 54.3 57 4.2 39.5
16:25 1023 30.21 852 25.16 12.5 54.4 58 4.4 40
16:30 1023 30.21 852 25.16 13.2 55.7 55 4.4 40
16:35 1023 30.21 852 25.16 13.7 56.6 55 4.9 40.7
16:40 1023 30.21 852 25.16 13.8 56.9 56 5.3 41.5
16:45 1023 30.21 852 25.16 13.4 56 59 5.6 42.1
16:50 1023 30.21 852 25.16 12.8 55.1 61 5.6 42
16:55 1023 30.21 852 25.16 12.1 53.9 60 4.8 40.6
17:00 1022 30.18 852 25.16 12 53.6 60 4.5 40.1
17:05 1022 30.18 852 25.16 12 53.6 62 5.1 41.1
17:10 1022 30.18 852 25.16 12.1 53.7 63 5.3 41.5
17:15 1022 30.18 852 25.16 11.8 53.2 63 5 41
17:20 1022 30.18 852 25.16 11.5 52.7 62 4.7 40.4
17:25 1022 30.18 852 25.16 11.6 52.9 60 4.2 39.6
17:30 1022 30.18 852 25.16 11.8 53.2 60 4.3 39.7
17:35 1022 30.18 852 25.16 11.9 53.4 58 3.9 39.1
17:40 1022 30.18 852 25.16 11.8 53.3 61 4.6 40.2
17:45 1022 30.18 852 25.16 11.9 53.4 60 4.5 40
17:50 1022 30.18 852 25.16 11.8 53.2 63 4.9 40.9
17:55 1022 30.18 852 25.16 11.7 53 63 4.9 40.7
18:00 1022 30.18 852 25.16 11.6 52.9 63 4.8 40.6
18:05 1022 30.18 852 25.16 11.6 52.8 62 4.6 40.4
18:10 1022 30.18 852 25.16 11.5 52.8 63 4.8 40.6
18:15 1022 30.18 852 25.16 11.4 52.6 64 4.9 40.8
18:20 1022 30.18 852 25.16 11.5 52.7 64 5 40.9
18:25 1022 30.18 851 25.13 11.4 52.6 65 5.1 41.2
18:30 1022 30.18 851 25.13 11.5 52.7 66 5.4 41.7
18:35 1022 30.18 851 25.13 11.4 52.5 67 5.5 42
18:40 1022 30.18 851 25.13 11.3 52.3 68 5.5 41.9
18:45 1022 30.18 851 25.13 11.1 52 67 5.4 41.7
18:50 1022 30.18 851 25.13 11.2 52.1 67 5.4 41.7
18:55 1022 30.18 851 25.13 11.3 52.3 67 5.4 41.7
19:00 1022 30.18 851 25.13 11.3 52.3 68 5.6 42
19:05 1022 30.18 851 25.13 11.3 52.3 67 5.4 41.7
19:10 1022 30.18 851 25.13 11.2 52.2 67 5.3 41.6
19:15 1022 30.18 851 25.13 11.2 52.1 68 5.5 41.9
19:20 1022 30.18 851 25.13 11 51.8 70 5.9 42.6
19:25 1022 30.18 851 25.13 10.9 51.5 69 5.4 41.7
19:30 1022 30.18 851 25.13 10.8 51.4 69 5.3 41.6
19:35 1022 30.18 851 25.13 10.7 51.2 71 5.6 42.1
19:40 1022 30.18 851 25.13 10.6 51 72 5.8 42.4
19:45 1022 30.18 851 25.13 10.4 50.8 72 5.6 42.1
19:50 1022 30.18 851 25.13 10.4 50.6 73 5.7 42.3
19:55 1022 30.18 851 25.13 10.3 50.5 75 6.1 42.9
20:00 1022 30.18 851 25.13 10 50 77 6.1 43.1
20:05 1022 30.18 851 25.13 9.8 49.7 77 6 42.9
20:10 1022 30.18 851 25.13 9.5 49.1 81 6.4 43.6
20:15 1022 30.18 851 25.13 9 48.2 81 5.9 42.7
20:20 1022 30.18 852 25.16 8.7 47.7 83 6 42.7
20:25 1022 30.18 852 25.16 8.4 47.1 84 5.8 42.4
20:30 1022 30.18 852 25.16 8.2 46.8 84 5.6 42.1
20:35 1022 30.18 852 25.16 8.2 46.7 85 5.8 42.4
20:40 1022 30.18 852 25.16 8 46.4 86 5.8 42.4
20:45 1022 30.18 852 25.16 7.9 46.3 86 5.7 42.3
20:50 1022 30.18 852 25.16 7.7 45.9 87 5.6 42.2
20:55 1022 30.18 852 25.16 7.6 45.7 86 5.4 41.7
21:00 1022 30.18 852 25.16 7.5 45.6 86 5.3 41.5
21:05 1022 30.18 852 25.16 7.5 45.5 86 5.2 41.4
21:10 1022 30.18 852 25.16 7.5 45.5 85 5.2 41.3
21:15 1022 30.18 852 25.16 7.7 45.8 82 4.9 40.8
21:20 1022 30.18 852 25.16 8.2 46.7 80 5 41
21:25 1022 30.18 852 25.16 8.1 46.6 81 5.1 41.2
21:30 1022 30.18 852 25.16 8 46.4 81 4.9 40.9
21:35 1022 30.18 852 25.16 8.1 46.5 80 4.9 40.8
21:40 1022 30.18 852 25.16 8.1 46.6 80 4.9 40.8
21:45 1022 30.18 851 25.13 8.2 46.7 79 4.7 40.5
21:50 1022 30.18 851 25.13 8.2 46.8 79 4.9 40.8
21:55 1022 30.18 851 25.13 8.3 46.9 79 4.9 40.8
22:00 1022 30.18 851 25.13 8.4 47.1 79 4.9 40.8
22:05 1022 30.18 851 25.13 8.4 47.1 79 4.9 40.8
22:10 1022 30.18 851 25.13 8.4 47.1 78 4.8 40.7
22:15 1022 30.18 851 25.13 8.3 47 78 4.7 40.5
22:20 1022 30.18 851 25.13 8.3 46.9 78 4.6 40.3
22:25 1022 30.18 851 25.13 8.3 47 77 4.6 40.3
22:30 1022 30.18 851 25.13 8.2 46.8 79 4.8 40.6
22:35 1022 30.18 851 25.13 8.1 46.5 79 4.7 40.5
22:40 1022 30.18 851 25.13 8.1 46.5 79 4.7 40.4
22:45 1022 30.18 851 25.13 8 46.4 80 4.7 40.5
22:50 1022 30.18 851 25.13 7.7 45.8 82 4.7 40.5
22:55 1021 30.15 851 25.13 7.4 45.2 83 4.7 40.5
23:00 1021 30.15 851 25.13 7.4 45.3 83 4.7 40.4
23:05 1021 30.15 851 25.13 7.5 45.4 83 4.7 40.5
23:10 1021 30.15 851 25.13 7.5 45.4 81 4.4 39.9
23:15 1021 30.15 851 25.13 7.3 45.1 81 4.3 39.7
23:20 1021 30.15 850 25.1 7.1 44.7 82 4.2 39.6
23:25 1021 30.15 850 25.1 7.1 44.9 82 4.3 39.8
23:30 1021 30.15 850 25.1 7.2 45 82 4.4 39.9
23:35 1021 30.15 850 25.1 7.3 45.1 82 4.3 39.8
23:40 1021 30.15 850 25.1 7.3 45.2 81 4.3 39.7
23:45 1021 30.15 850 25.1 7.5 45.6 80 4.3 39.7
23:50 1021 30.15 850 25.1 7.1 44.8 82 4.2 39.6
23:55 1021 30.15 850 25.1 6.9 44.4 83 4.2 39.5
24:00 1021 30.15 850 25.1 6.7 44.1 83 4 39.2